Date String (YYYY-MM-DD hh:mm:ss) UTC,Instrument flags,absolute air pressure of the measurement (hPa),sample flow rate (lpm),inlet stack bypass flow (lpm),air temperature of the measurement (°C),ambient temperature measured by the external sensor (°C),aerosol sample conditioner tube jacket temperature (°C),OPC LED temperature (°C),internal box temperature (°C),relative humidity of the measurement (%),span deviation,mass concentration of particles derived from Lorenz-Mie calculation of OPC scattering (μg/m³),mass concentration of particles derived from Lorenz-Mie calculation of OPC scattering (μg/m³),mass concentration of particles derived from Lorenz-Mie calculation of OPC scattering (μg/m³)
DateTimeUTC,F1_M11,P_M11,Q1_M11,Q2_M11,T1_M11,T2_M11,T3_M11,T4_M11,T5_M11,U1_M11,ZSPAN_M11,X2_M11,X0_M11,X1_M11
2023-07-28 09:00:00,SystemResetWarning,0834.4,5.01,000.00,029.3,027.9,000.0,037.7,030.9,28.7,0000.0,0005.00,0017.90,0003.43
2023-07-28 09:01:00,SystemResetWarning,0834.3,5.00,000.00,029.3,028.0,000.0,037.7,030.9,28.7,0000.0,0005.06,0018.90,0003.44
2023-07-28 09:02:00,SystemResetWarning,0834.3,5.01,000.00,029.3,028.1,000.0,037.8,031.0,28.7,0000.0,0005.11,0019.61,0003.45
2023-07-28 09:03:00,SystemResetWarning,0834.5,5.00,000.00,029.4,028.1,000.0,037.8,031.0,28.7,0000.0,0005.13,0019.50,0003.47
2023-07-28 09:04:00,SystemResetWarning,0834.3,4.99,000.00,029.4,028.2,000.0,037.8,031.0,28.4,0000.0,0005.01,0020.05,0003.48
2023-07-28 09:05:00,SystemResetWarning,0834.2,4.99,000.00,029.4,028.2,000.0,037.8,031.1,28.2,0000.0,0004.95,0019.86,0003.50
2023-07-28 09:06:00,SystemResetWarning,0834.2,5.00,000.00,029.5,028.2,000.0,037.8,031.1,28.0,0000.0,0005.00,0019.31,0003.50
2023-07-28 09:07:00,SystemResetWarning,0834.2,4.99,000.00,029.5,028.3,000.0,037.9,031.1,27.9,0000.0,0005.05,0019.01,0003.50
2023-07-28 09:08:00,SystemResetWarning,0834.2,5.00,000.00,029.5,028.3,000.0,037.9,031.1,27.7,0000.0,0005.08,0018.84,0003.51
2023-07-28 09:09:00,SystemResetWarning,0834.1,5.00,000.00,029.5,028.3,000.0,037.9,031.2,27.6,0000.0,0005.11,0018.47,0003.51
2023-07-28 09:10:00,SystemResetWarning,0834.1,5.00,000.00,029.6,028.4,000.0,037.9,031.2,27.6,0000.0,0005.13,0017.68,0003.52
2023-07-28 09:11:00,SystemResetWarning,0834.1,5.00,000.00,029.6,028.4,000.0,038.0,031.2,27.5,0000.0,0005.14,0017.48,0003.52
2023-07-28 09:12:00,SystemResetWarning,0834.1,5.00,000.00,029.6,028.4,000.0,038.0,031.2,27.4,0000.0,0005.16,0018.16,0003.54
2023-07-28 09:13:00,SystemResetWarning,0834.1,5.00,000.00,029.6,028.3,000.0,038.0,031.2,27.3,0000.0,0005.17,0017.87,0003.54
2023-07-28 09:14:00,SystemResetWarning,0834.1,4.98,000.00,029.6,026.6,000.0,037.9,031.1,27.3,0000.0,0005.12,0017.65,0003.52
2023-07-28 09:15:00,SystemResetWarning,0834.1,5.02,000.00,029.5,025.3,000.0,037.8,030.8,27.4,0000.0,0005.11,0016.67,0003.51
2023-07-28 09:16:00,SystemResetWarning,0834.1,5.00,000.00,029.4,025.2,000.0,037.8,030.5,27.4,0000.0,0005.05,0015.87,0003.48
2023-07-28 09:17:00,SystemResetWarning,0834.1,4.99,000.00,029.3,025.5,000.0,037.8,030.5,27.5,0000.0,0004.96,0014.68,0003.47
2023-07-28 09:18:00,SystemResetWarning,0834.1,5.00,000.00,029.2,025.9,000.0,037.8,030.5,27.2,0000.0,0004.84,0013.75,0003.45
2023-07-28 09:19:00,SystemResetWarning,0834.1,5.01,000.00,029.2,026.3,000.0,037.8,030.6,27.2,0000.0,0004.72,0013.14,0003.44
2023-07-28 09:20:00,SystemResetWarning,0834.1,5.01,000.00,029.2,026.7,000.0,037.8,030.7,27.0,0000.0,0004.67,0012.81,0003.43
2023-07-28 09:21:00,SystemResetWarning,0834.0,5.00,000.00,029.2,027.0,000.0,037.8,030.7,27.0,0000.0,0004.59,0012.51,0003.42
2023-07-28 09:22:00,SystemResetWarning,0833.9,5.00,000.00,029.2,027.2,000.0,037.8,030.8,27.0,0000.0,0004.50,0011.45,0003.40
2023-07-28 09:23:00,SystemResetWarning,0833.8,4.98,000.00,029.3,027.5,000.0,037.8,030.8,27.0,0000.0,0004.40,0009.78,0003.37
2023-07-28 09:24:00,SystemResetWarning,0833.8,5.00,000.00,029.3,027.6,000.0,037.8,030.9,27.0,0000.0,0004.33,0008.92,0003.35
2023-07-28 09:25:00,SystemResetWarning,0833.8,5.01,000.00,029.3,027.8,000.0,037.8,030.9,27.0,0000.0,0004.29,0008.74,0003.34
2023-07-28 09:26:00,SystemResetWarning,0833.8,5.01,000.00,029.3,027.9,000.0,037.8,031.0,27.0,0000.0,0004.20,0008.34,0003.32
2023-07-28 09:27:00,SystemResetWarning,0833.8,5.00,000.00,029.4,028.1,000.0,037.8,031.0,26.9,0000.0,0004.15,0008.15,0003.32
2023-07-28 09:28:00,SystemResetWarning,0833.8,4.99,000.00,029.4,028.2,000.0,037.8,031.0,26.8,0000.0,0004.13,0008.07,0003.32
2023-07-28 09:29:00,SystemResetWarning,0833.8,5.00,000.00,029.4,028.2,000.0,037.8,031.1,26.8,0000.0,0004.10,0007.86,0003.32
2023-07-28 09:30:00,SystemResetWarning,0833.7,4.99,000.00,029.5,028.3,000.0,037.9,031.1,26.7,0000.0,0004.12,0007.83,0003.31
2023-07-28 09:31:00,SystemResetWarning,0833.7,5.00,000.00,029.5,028.4,000.0,037.9,031.1,26.7,0000.0,0004.09,0007.98,0003.31
2023-07-28 09:32:00,SystemResetWarning,0833.4,5.00,000.00,029.5,028.4,000.0,037.9,031.2,26.8,0000.0,0004.00,0007.90,0003.30
2023-07-28 09:33:00,SystemResetWarning,0833.2,5.00,000.00,029.6,028.4,000.0,037.9,031.2,27.4,0000.0,0003.96,0007.78,0003.28
2023-07-28 09:34:00,SystemResetWarning,0833.2,4.99,000.00,029.6,028.5,000.0,038.0,031.3,28.1,0000.0,0003.98,0007.89,0003.28
2023-07-28 09:35:00,SystemResetWarning,0833.1,5.00,000.00,029.6,028.5,000.0,038.0,031.3,28.2,0000.0,0003.96,0007.88,0003.27
2023-07-28 09:36:00,SystemResetWarning,0833.2,5.00,000.00,029.6,028.5,000.0,038.0,031.3,28.2,0000.0,0003.94,0007.83,0003.26
2023-07-28 09:37:00,SystemResetWarning,0833.4,5.00,000.00,029.7,028.6,000.0,038.0,031.3,28.5,0000.0,0003.92,0007.80,0003.25
2023-07-28 09:38:00,SystemResetWarning,0833.7,5.00,000.00,029.7,027.8,000.0,038.0,031.3,29.0,0000.0,0003.92,0007.85,0003.23
2023-07-28 09:39:00,SystemResetWarning,0833.9,5.00,000.00,029.6,026.0,000.0,037.9,031.0,29.8,0000.0,0003.90,0007.83,0003.21
2023-07-28 09:40:00,SystemResetWarning,0833.9,5.00,000.00,029.5,025.3,000.0,037.8,030.8,31.5,0000.0,0003.88,0007.80,0003.19
2023-07-28 09:41:00,SystemResetWarning,0833.9,5.01,000.00,029.4,025.5,000.0,037.8,030.6,31.4,0000.0,0003.83,0007.79,0003.17
2023-07-28 09:42:00,SystemResetWarning,0833.8,5.01,000.00,029.4,025.9,000.0,037.8,030.6,29.7,0000.0,0003.79,0007.46,0003.15
2023-07-28 09:43:00,SystemResetWarning,0833.8,4.99,000.00,029.3,026.3,000.0,037.9,030.7,29.0,0000.0,0003.79,0007.38,0003.14
2023-07-28 09:44:00,SystemResetWarning,0833.8,5.00,000.00,029.3,026.6,000.0,037.9,030.7,29.1,0000.0,0003.81,0007.43,0003.15
2023-07-28 09:45:00,SystemResetWarning,0833.8,5.00,000.00,029.3,026.9,000.0,037.9,030.8,27.8,0000.0,0003.81,0007.43,0003.15
2023-07-28 09:46:00,SystemResetWarning,0833.8,5.00,000.00,029.3,027.2,000.0,037.9,030.8,28.3,0000.0,0003.81,0007.44,0003.14
2023-07-28 09:47:00,SystemResetWarning,0833.8,5.00,000.00,029.3,027.4,000.0,037.9,030.9,28.0,0000.0,0003.81,0007.48,0003.14
2023-07-28 09:48:00,SystemResetWarning,0833.8,4.99,000.00,029.3,027.6,000.0,037.9,030.9,28.1,0000.0,0003.82,0007.46,0003.15
2023-07-28 09:49:00,SystemResetWarning,0833.8,5.00,000.00,029.4,027.7,000.0,037.9,030.9,28.3,0000.0,0003.82,0007.53,0003.15
2023-07-28 09:50:00,SystemResetWarning,0833.9,5.01,000.00,029.4,027.9,000.0,037.9,031.0,28.4,0000.0,0003.81,0007.45,0003.15
2023-07-28 09:51:00,SystemResetWarning,0833.9,5.01,000.00,029.4,028.0,000.0,037.9,031.0,28.6,0000.0,0003.80,0007.41,0003.15
2023-07-28 09:52:00,SystemResetWarning,0834.0,5.00,000.00,029.4,028.1,000.0,037.9,031.0,28.1,0000.0,0003.81,0007.36,0003.16
2023-07-28 09:53:00,SystemResetWarning,0833.9,5.00,000.00,029.5,028.2,000.0,037.9,031.1,27.8,0000.0,0003.78,0007.94,0003.16
2023-07-28 09:54:00,SystemResetWarning,0834.0,5.00,000.00,029.5,028.2,000.0,037.9,031.1,27.6,0000.0,0003.77,0007.84,0003.16
2023-07-28 09:55:00,SystemResetWarning,0834.0,5.00,000.00,029.5,028.3,000.0,037.9,031.1,27.4,0000.0,0003.79,0007.97,0003.17
2023-07-28 09:56:00,SystemResetWarning,0834.1,5.00,000.00,029.5,028.4,000.0,037.9,031.2,26.8,0000.0,0003.79,0008.60,0003.17
2023-07-28 09:57:00,SystemResetWarning,0834.1,5.01,000.00,029.6,028.4,000.0,038.0,031.2,27.0,0000.0,0003.82,0009.25,0003.17
2023-07-28 09:58:00,SystemResetWarning,0834.2,5.00,000.00,029.6,028.5,000.0,038.0,031.2,26.5,0000.0,0003.81,0009.66,0003.17
2023-07-28 09:59:00,SystemResetWarning,0834.2,4.99,000.00,029.6,028.5,000.0,038.0,031.3,26.1,0000.0,0003.80,0009.65,0003.16
